When you browse on this site, cookies collect data to enhance your experience and personalize the content and advertising you see.
Visit our Privacy Policy to learn more. By continuing to use the site, you agree to this use of cookies and data.
  • In Österreich
  • Länderverzeichnis
  • Für 7 Tage
  • Wassertemperatur
  • Satellitenkarten
  • Wetterkarte
  • News
  • Widgets
  • user-avatar
    Anmelden

    Stündliche Wetter Shusha

    Heute, 20 Juli, Samstag

    Zeit Temperatur Niederschläge Wind Luftdruck Luftfeuchtigkeit
    00:00 +20°C° 0 mm 2 m/S 660 mmHg 63%
    01:00 +21°C° 0 mm 1 m/S 660 mmHg 64%
    02:00 +21°C° 0 mm 1 m/S 660 mmHg 64%
    03:00 +20°C° 0 mm 1 m/S 660 mmHg 64%
    04:00 +21°C° 0 mm 1 m/S 661 mmHg 64%
    05:00 +21°C° 0 mm 1 m/S 661 mmHg 63%
    06:00 +22°C° 0 mm 1 m/S 662 mmHg 63%
    07:00 +23°C° 0 mm 1 m/S 662 mmHg 58%
    08:00 +25°C° 0 mm 2 m/S 663 mmHg 53%
    09:00 +26°C° 0 mm 2 m/S 663 mmHg 47%
    10:00 +27°C° 0 mm 3 m/S 663 mmHg 44%
    11:00 +28°C° 0 mm 3 m/S 663 mmHg 40%
    12:00 +29°C° 0 mm 3 m/S 663 mmHg 36%
    13:00 +30°C° 0 mm 4 m/S 663 mmHg 35%
    14:00 +30°C° 0 mm 4 m/S 663 mmHg 34%
    15:00 +30°C° 0 mm 4 m/S 662 mmHg 33%
    16:00 +30°C° 0 mm 4 m/S 662 mmHg 36%
    17:00 +29°C° 0 mm 4 m/S 662 mmHg 39%
    18:00 +28°C° 0 mm 4 m/S 662 mmHg 43%
    19:00 +26°C° 0 mm 3 m/S 662 mmHg 46%
    20:00 +24°C° 0 mm 2 m/S 662 mmHg 50%
    21:00 +21°C° 0 mm 2 m/S 662 mmHg 54%
    22:00 +21°C° 0 mm 2 m/S 662 mmHg 54%
    23:00 +20°C° 0 mm 2 m/S 662 mmHg 54%

    Morgen, 21 Juli, Sonntag

    Zeit Temperatur Niederschläge Wind Luftdruck Luftfeuchtigkeit
    00:00 +20°C° 0 mm 2 m/S 662 mmHg 54%
    01:00 +20°C° 0 mm 2 m/S 662 mmHg 55%
    02:00 +20°C° 0 mm 2 m/S 662 mmHg 55%
    03:00 +20°C° 0 mm 2 m/S 662 mmHg 55%
    04:00 +20°C° 0 mm 2 m/S 662 mmHg 55%
    05:00 +20°C° 0 mm 2 m/S 662 mmHg 55%
    06:00 +21°C° 0 mm 2 m/S 663 mmHg 55%
    07:00 +23°C° 0 mm 2 m/S 663 mmHg 50%
    08:00 +25°C° 0 mm 2 m/S 663 mmHg 46%
    09:00 +27°C° 0 mm 2 m/S 663 mmHg 41%
    10:00 +28°C° 0 mm 3 m/S 663 mmHg 39%
    11:00 +29°C° 0 mm 3 m/S 663 mmHg 36%
    12:00 +30°C° 0 mm 3 m/S 663 mmHg 34%
    13:00 +31°C° 0 mm 3 m/S 663 mmHg 33%
    14:00 +33°C° 0 mm 3 m/S 662 mmHg 32%
    15:00 +33°C° 0 mm 3 m/S 661 mmHg 31%
    16:00 +31°C° 0 mm 2 m/S 661 mmHg 34%
    17:00 +31°C° 0 mm 2 m/S 661 mmHg 37%
    18:00 +30°C° 0 mm 2 m/S 661 mmHg 40%
    19:00 +28°C° 0 mm 2 m/S 661 mmHg 44%
    20:00 +26°C° 0 mm 1 m/S 660 mmHg 49%
    21:00 +23°C° 0 mm 1 m/S 660 mmHg 53%
    22:00 +23°C° 0 mm 2 m/S 660 mmHg 53%
    23:00 +23°C° 0 mm 2 m/S 660 mmHg 53%

    übermorgen, 22 Juli, Montag

    Zeit Temperatur Niederschläge Wind Luftdruck Luftfeuchtigkeit
    00:00 +23°C° 0 mm 2 m/S 660 mmHg 52%
    01:00 +23°C° 0 mm 2 m/S 660 mmHg 52%
    02:00 +23°C° 0 mm 1 m/S 659 mmHg 52%
    03:00 +23°C° 0 mm 1 m/S 659 mmHg 51%
    04:00 +23°C° 0 mm 1 m/S 659 mmHg 51%
    05:00 +24°C° 0 mm 1 m/S 659 mmHg 52%
    06:00 +24°C° 0 mm 1 m/S 660 mmHg 52%
    07:00 +26°C° 0 mm 1 m/S 660 mmHg 48%
    08:00 +27°C° 0 mm 1 m/S 660 mmHg 45%
    09:00 +29°C° 0 mm 2 m/S 660 mmHg 41%
    10:00 +30°C° 0 mm 2 m/S 660 mmHg 40%
    11:00 +30°C° 0 mm 3 m/S 660 mmHg 39%
    12:00 +31°C° 0 mm 3 m/S 660 mmHg 38%
    13:00 +33°C° 0 mm 3 m/S 660 mmHg 38%
    14:00 +33°C° 0 mm 3 m/S 660 mmHg 37%
    15:00 +33°C° 0 mm 3 m/S 659 mmHg 37%
    16:00 +31°C° 0 mm 3 m/S 659 mmHg 41%
    17:00 +29°C° 0 mm 3 m/S 659 mmHg 46%
    18:00 +28°C° 0 mm 3 m/S 658 mmHg 50%
    19:00 +26°C° 0 mm 2 m/S 658 mmHg 57%
    20:00 +24°C° 0 mm 2 m/S 658 mmHg 63%
    21:00 +22°C° 0 mm 1 m/S 658 mmHg 69%
    22:00 +22°C° 0 mm 1 m/S 658 mmHg 70%
    23:00 +22°C° 0 mm 1 m/S 657 mmHg 70%

    23 Juli, Dienstag

    Zeit Temperatur Niederschläge Wind Luftdruck Luftfeuchtigkeit
    00:00 +21°C° 0 mm 1 m/S 657 mmHg 71%
    01:00 +21°C° 0 mm 1 m/S 657 mmHg 71%
    02:00 +21°C° 0 mm 1 m/S 657 mmHg 71%
    03:00 +19°C° 0 mm 2 m/S 657 mmHg 70%
    04:00 +20°C° 0 mm 2 m/S 657 mmHg 69%
    05:00 +21°C° 0 mm 1 m/S 658 mmHg 67%
    06:00 +21°C° 0 mm 1 m/S 658 mmHg 65%
    07:00 +23°C° 0 mm 2 m/S 658 mmHg 59%
    08:00 +24°C° 0 mm 2 m/S 659 mmHg 52%
    09:00 +26°C° 0 mm 2 m/S 659 mmHg 45%
    10:00 +27°C° 0 mm 2 m/S 659 mmHg 43%
    11:00 +28°C° 0 mm 3 m/S 659 mmHg 41%
    12:00 +30°C° 0 mm 3 m/S 659 mmHg 38%
    13:00 +30°C° 0 mm 4 m/S 658 mmHg 38%
    14:00 +30°C° 0 mm 4 m/S 658 mmHg 38%
    15:00 +32°C° 0 mm 4 m/S 657 mmHg 38%
    16:00 +29°C° 0 mm 4 m/S 657 mmHg 42%
    17:00 +28°C° 0 mm 3 m/S 657 mmHg 46%
    18:00 +27°C° 0 mm 3 m/S 657 mmHg 51%
    19:00 +25°C° 0 mm 2 m/S 657 mmHg 55%
    20:00 +24°C° 0 mm 2 m/S 657 mmHg 60%
    21:00 +22°C° 0 mm 1 m/S 657 mmHg 64%
    22:00 +22°C° 0 mm 1 m/S 657 mmHg 64%
    23:00 +22°C° 0 mm 1 m/S 657 mmHg 65%

    24 Juli, Mittwoch

    Zeit Temperatur Niederschläge Wind Luftdruck Luftfeuchtigkeit
    00:00 +21°C° 0 mm 1 m/S 657 mmHg 65%
    01:00 +21°C° 0 mm 1 m/S 657 mmHg 65%
    02:00 +21°C° 0 mm 1 m/S 657 mmHg 65%
    03:00 +21°C° 0 mm 1 m/S 657 mmHg 65%
    04:00 +21°C° 0 mm 1 m/S 657 mmHg 63%
    05:00 +22°C° 0 mm 1 m/S 657 mmHg 62%
    06:00 +23°C° 0 mm 1 m/S 658 mmHg 61%
    07:00 +24°C° 0 mm 1 m/S 658 mmHg 56%
    08:00 +26°C° 0 mm 1 m/S 658 mmHg 50%
    09:00 +27°C° 0 mm 2 m/S 659 mmHg 44%
    10:00 +28°C° 0 mm 2 m/S 659 mmHg 42%
    11:00 +30°C° 0 mm 2 m/S 658 mmHg 40%
    12:00 +31°C° 0 mm 3 m/S 658 mmHg 37%
    13:00 +31°C° 0 mm 3 m/S 658 mmHg 36%
    14:00 +33°C° 0 mm 3 m/S 658 mmHg 35%
    15:00 +33°C° 0 mm 3 m/S 657 mmHg 34%
    16:00 +31°C° 0 mm 3 m/S 657 mmHg 37%
    17:00 +31°C° 0 mm 3 m/S 657 mmHg 39%
    18:00 +30°C° 0 mm 2 m/S 657 mmHg 42%
    19:00 +28°C° 0 mm 2 m/S 657 mmHg 46%
    20:00 +26°C° 0 mm 2 m/S 657 mmHg 51%
    21:00 +23°C° 0 mm 1 m/S 657 mmHg 55%
    22:00 +23°C° 0 mm 1 m/S 657 mmHg 56%
    23:00 +23°C° 0 mm 1 m/S 657 mmHg 56%

    25 Juli, Donnerstag

    Zeit Temperatur Niederschläge Wind Luftdruck Luftfeuchtigkeit
    00:00 +23°C° 0 mm 1 m/S 657 mmHg 57%
    01:00 +22°C° 0 mm 1 m/S 657 mmHg 57%
    02:00 +22°C° 0 mm 1 m/S 656 mmHg 58%
    03:00 +21°C° 0 mm 1 m/S 656 mmHg 58%
    04:00 +22°C° 0 mm 1 m/S 657 mmHg 58%
    05:00 +22°C° 0 mm 1 m/S 657 mmHg 57%
    06:00 +23°C° 0 mm 1 m/S 657 mmHg 57%
    07:00 +25°C° 0 mm 1 m/S 658 mmHg 53%
    08:00 +26°C° 0 mm 2 m/S 658 mmHg 48%
    09:00 +28°C° 0 mm 2 m/S 658 mmHg 43%
    10:00 +29°C° 0 mm 2 m/S 658 mmHg 42%
    11:00 +30°C° 0 mm 3 m/S 658 mmHg 40%
    12:00 +31°C° 0 mm 3 m/S 658 mmHg 38%
    13:00 +31°C° 0 mm 3 m/S 658 mmHg 37%
    14:00 +33°C° 0 mm 3 m/S 657 mmHg 36%
    15:00 +33°C° 0 mm 3 m/S 657 mmHg 35%
    16:00 +31°C° 0 mm 3 m/S 657 mmHg 38%
    17:00 +30°C° 0 mm 3 m/S 656 mmHg 40%
    18:00 +29°C° 0 mm 3 m/S 656 mmHg 43%
    19:00 +27°C° 0 mm 2 m/S 656 mmHg 48%
    20:00 +25°C° 0 mm 2 m/S 656 mmHg 53%
    21:00 +23°C° 0 mm 1 m/S 656 mmHg 58%
    22:00 +22°C° 0 mm 1 m/S 655 mmHg 60%
    23:00 +21°C° 0 mm 1 m/S 655 mmHg 61%
    Mehr zeigen